Regional Weather Roundup
Issued by NWS Bismarck, ND

Home | Current Version | Previous Version | Text Only | Print | Product List | Glossary On
Versions: 1 2 3 4 5 6 7 8 9 10 11 12 13 14 15 16 17 18 19 20 21 22 23 24 25 26 27 28 29 30 31 32 33 34 35 36 37 38 39 40 41 42 43 44 45 46 47 48 49 50
000
ASUS43 KBIS 052010
RWRBIS

NWR BROADCAST TEXT
NATIONAL WEATHER SERVICE BISMARCK ND
300 PM CDT TUE MAY 05 2015

NOTE: "FAIR" INDICATES FEW OR NO CLOUDS BELOW 12,000 FEET WITH NO
SIGNIFICANT WEATHER AND/OR OBSTRUCTIONS TO VISIBILITY.


CITY           SKY/WX    TMP DP  RH WIND       PRES   REMARKS
WILLISTON      SUNNY     80  42  25 S18G26    29.81F
MINOT          SUNNY     76  31  19 SE20G31   29.91F
MINOT AFB      MOSUNNY   78  33  19 S25G37    29.90F
BISMARCK       SUNNY     75  26  16 SE22G35   29.95F
DICKINSON      SUNNY     73  48  41 S31G39    29.87F
GARRISON         N/A     75  31  19 S26G33    29.92F
HETTINGER ARPT PTSUNNY   69  49  48 SE24G33   29.92F
JAMESTOWN      SUNNY     77  24  14 SE20G28   29.99F
BEACH          FAIR      73  46  38 S22G32    29.83F
CARRINGTON     FAIR      73  27  17 S25G32    30.00F
CROSBY         FAIR      77  39  25 S15G31    29.83F
HARVEY         MOCLDY    72  28  20 SE18G29   29.98F
HAZEN          FAIR      75  34  22 S26G36    29.92F
LINTON         FAIR      75  32  20 S17G28    29.96F
MANDAN         FAIR      73  28  19 S25G32    29.95F
OAKES            N/A     75  32  20 SE20G25   30.01F
STANLEY        FAIR      73  41  31 S26G40    29.89F
WATFORD CITY   FAIR      77  45  31 S21G31    29.81F
$$

CITY           SKY/WX    TMP DP  RH WIND       PRES   REMARKS
GRAND FORKS    MOSUNNY   77  20  12 S13G26    30.03F
GRAND FORKS AF MOSUNNY   77  22  13 S17G24    30.04F
DEVILS LAKE    PTSUNNY   72  30  21 SE17      30.01F
FARGO          SUNNY     79  23  12 SE17G35   30.04F
CANDO          FAIR      73  28  19 S22G33    30.01F
CAVALIER       FAIR      73  25  16 S17G24    30.03F
GRAFTON        FAIR      75  25  15 S16G25    30.05F
GWINNER        CLEAR     77  32  19 SE14G24   30.03F
LANGDON        FAIR      75  28  17 S20G29    30.03F
WALHALLA       FAIR      75  30  19 S16G25    30.03F
$$

CITY           SKY/WX    TMP DP  RH WIND       PRES   REMARKS
ABERDEEN       SUNNY     78  41  26 SE18G32   29.99F
MOBRIDGE       SUNNY     78  41  26 SE24G31   29.93F
BUFFALO          N/A     68  50  52 SE28G38   29.82F
RAPID CITY     CLOUDY    61  49  64 S18G28    29.93F
GLASGOW        MOSUNNY   77  39  25 SE14      29.72F
SIDNEY         SUNNY     81  46  30 SE18G29   29.78F
WOLF POINT     MOSUNNY   80  42  25 S8        29.74F
GLENDIVE       MOSUNNY   79  46  31 S13G29    29.78F
MILES CITY     SUNNY     79  45  29 SE12G22   29.74F
BAKER          SUNNY     75  48  38 SE28G40   29.83F
$$

CITY           SKY/WX    TMP DP  RH WIND       PRES   REMARKS
BILLINGS       MOSUNNY   77  39  25 E10G20    29.72F
GREAT FALLS    CLOUDY    70  33  25 CALM      29.73F
REGINA         MOSUNNY   77  39  25 S18G30    29.77F
ESTEVAN        MOSUNNY   75  39  27 SE22G29   29.85F
$$



USA.gov is the U.S. government's official web portal to all federal, state and local government web resources and services.